www.pogodaiklimat.ru

Погода и климат >> Архив погоды >> Россия >> Свердловская область >> Гари


ПОГОДА в Гарях

  • Прогноз погоды в Гарях
  • Монитор погоды в Гарях

АРХИВ ПОГОДЫ в Гарях

Время (UTC), дата Ветер
(напр.,м/с)
 
Видим.   Явления Облачность Т
(С)
Тd
(С)
f
(%)
Тe
(С)
Тes
(С)
Комфортность P
(гПа)
Po
(гПа)
Тmin
(С)
Tmax
(С)
R
(мм)
R24
(мм)
S
(см)
00 14.03 Ю 4 10 км ясно -4.7 -10.9 62 -11 -11 1010.0 993.4
03 14.03 Ю 3 50 км 6/0
[Cs]
-6.5 -11.1 70 -12 -12 1010.4 993.6 -6.6 32
06 14.03 Ю 3 50 км 6/0
[Ac und Ci fib]
-5.4 -10.0 70 -11 -8 1010.6 993.8
09 14.03 Ю 2 50 км 8/0
[Ac und]
-2.7 -8.8 63 -6 -4 1009.5 993.0
12 14.03 Ю 2 50 км 8/0
[Ac und]
-1.2 -7.8 61 -5 -4 1008.1 991.8
15 14.03 ЮЗ 4 10 км 9/0
[Ac und]
-1.8 -8.3 61 -7 -7 1007.3 990.9 -0.6
18 14.03 С 9-13
{13}
10 км слаб. снег 10/0
[As op]
-2.4 -8.8 61 -11 -11 1003.9 987.5
21 14.03 С 11-16
{17}
10 км слаб. снег {метель} 10/0
[As op]
-3.4 -8.5 68 -13 -13 1002.6 986.1
00 15.03 С 12-16
{18}
10 км слаб. снег {метель} 10/0
[As op]
-2.5 -6.2 76 -12 -12 1001.3 984.9
03 15.03 С 13-18
{20}
10 км слаб. снег {метель} 10/0
[As op]
-8.2 -10.5 83 -20 -20 1000.8 984.1 -8.2 2 38
06 15.03 С 13-18
{18}
10 км слаб. снег {метель} 10/0
[As op]
-9.2 -12.0 80 -21 -21 1002.9 986.0 -9.2
09 15.03 СЗ 12-17
{18}
10 км слаб. снег {метель} 10/0
[As op]
-8.6 -10.5 86 -20 -20 1004.2 987.5
12 15.03 СЗ 12-16
{20}
10 км слаб. снег {метель} 10/0
[As op]
-7.5 -9.7 84 -18 -18 1007.3 990.5
15 15.03 СЗ 10-15
{17}
10 км слаб. снег {метель} 10/0
[As op]
-5.8 -8.0 84 -16 -16 1009.5 992.8 -5.8 2
18 15.03 СЗ 11-14
{16}
10 км слаб. снег {метель} 10/0
[As op]
-6.4 -8.4 86 -17 -17 1010.4 993.7
21 15.03 СЗ 10-14
{17}
10 км позёмок {снег} 8/0
[Ac As]
-6.6 -8.6 86 -17 -17 1011.5 994.8
00 16.03 СЗ 8-12
{14}
10 км позёмок {снег} 8/0
[Ac As]
-7.0 -8.7 88 -16 -16 1012.9 996.1
03 16.03 СЗ 8-11
{13}
50 км позёмок 6/0
[Ac trans]
-7.8 -9.6 87 -17 -17 1015.2 998.3 -7.8 0.2 39
06 16.03 СЗ 9-13
{13}
50 км позёмок 6/0
[Ac trans]
-5.0 -14.6 47 -14 -13 1016.8 1000.1
09 16.03 СЗ 8-11
{15}
50 км позёмок 6/0
[Ac trans]
-2.6 -14.9 38 -10 -9 1018.1 1001.5
12 16.03 СЗ 4
{12}
50 км {метель} 3/0
[Ac trans]
-1.2 -14.5 36 -6 -5 1019.4 1002.8
15 16.03 СЗ 3 10 км ясно -2.5 -17.6 30 -7 -7 1020.5 1003.8 -1.2
18 16.03 СЗ 2 10 км ясно -4.6 -19.5 30 -8 -8 1022.1 1005.3
21 16.03 С 2 10 км ясно -7.2 -19.6 36 -11 -11 1023.9 1006.8
00 17.03 З 1 10 км ясно -8.5 -19.0 42 -10 -10 1025.4 1008.2
03 17.03 штиль 0 50 км ясно -11.4 -21.0 45 -11 -11 1027.1 1009.7 -13.6 45
06 17.03 Ю 2 50 км 6/0
[Ci sp]
-5.7 -15.9 44 -9 -5 1028.1 1011.1
09 17.03 штиль 0 50 км 4/0
[Ci fib]
-0.1 -14.2 34 -0 +6 1028.2 1011.6
12 17.03 ЮЗ 1 50 км 6/0
[Cs]
+2.1 -13.5 30 +2 +3 1027.2 1010.7
15 17.03 ЮВ 4 10 км 9/0
[Ac und]
-0.8 -15.6 32 -5 -5 1027.6 1011.0 +2.3
18 17.03 Ю 5 10 км 8/0
[Ac und]
-2.1 -14.5 38 -8 -8 1028.0 1011.2
21 17.03 ЮВ 5 10 км 10/0
[Ac und]
-2.3 -13.1 43 -8 -8 1027.8 1011.0
00 18.03 ЮВ 5 10 км 6/0
[Ac und]
-3.3 -12.7 48 -9 -9 1028.1 1011.2
03 18.03 Ю 5 50 км 10/0
[Ac As]
-3.6 -11.6 54 -10 -10 1028.6 1011.7 -4.0 44
06 18.03 Ю 3 50 км 8/0
[Ac trans]
-1.5 -9.6 54 -6 -4 1029.0 1012.2
09 18.03 Ю 3 50 км 9/0
[Ac trans]
+1.6 -7.9 49 -2 0 1028.9 1012.4
12 18.03 Ю 3 50 км 9/0
[Ac trans]
+3.8 -7.1 45 +1 +1 1028.8 1012.4
15 18.03 Ю 3 10 км 8/0
[Ac trans]
+1.5 -5.1 61 -2 -2 1028.7 1012.2 +4.3
18 18.03 Ю 3 10 км 6/0
[Ac trans]
+1.0 -5.8 60 -3 -3 1028.4 1011.9
21 18.03 ЮВ 6 10 км 6/0
[Ac trans]
+0.9 -5.9 60 -5 -5 1028.4 1011.9
00 19.03 Ю 5 10 км ясно -1.6 -8.0 62 -8 -8 1029.0 1012.2
03 19.03 ЮВ 4 50 км ясно -3.7 -10.3 60 -9 -9 1029.1 1012.2 -3.9 43
06 19.03 Ю 3 50 км ясно +0.1 -9.3 49 1028.9 1012.1
09 19.03 Ю 1 50 км ясно +4.9 -9.5 34 +5 +11 1027.6 1011.3
12 19.03 Ю 3 50 км 4/0
[Ac trans]
+6.3 -10.0 30 +4 +5 1026.8 1010.5
15 19.03 Ю 4 10 км 4/0
[Ac trans]
+5.1 -10.2 32 +2 +2 1026.1 1009.8 +7.5
18 19.03 Ю 6 10 км ясно -0.8 -9.9 50 -7 -7 1026.2 1009.6
21 19.03 ЮВ 6 10 км ясно -2.4 -10.2 55 -9 -9 1025.4 1008.6
00 20.03 Ю 7 10 км ясно -3.8 -10.5 60 -11 -11 1024.0 1007.1
03 20.03 Ю 6 50 км 4/0
[Ac trans]
-5.2 -11.1 63 -13 -12 1023.1 1006.2 -5.2 40
06 20.03 Ю 5 50 км 6/0
[Ci fib]
-0.1 -8.3 54 -6 -3 1021.5 1004.9
09 20.03 Ю 5 50 км 6/0
[Ci fib]
+6.8 -7.9 34 +4 +6 1019.2 1002.9
12 20.03 Ю 6-10
{11}
50 км 6/0
[Ci fib]
-7.8 -12.0 72 -16 -15 1017.4 1001.4
15 20.03 Ю 7
{10}
10 км 6/0
[Ac trans]
+4.9 -8.5 37 0 0 1016.6 1000.4 +7.8
18 20.03 Ю 5 10 км 6/0
[Ac trans]
+3.3 -7.0 47 -1 -1 1016.1 999.9

 

Местоположение метеостанции Гари (Свердловская область, Россия): широта 59.43 долгота 62.33 высота над уровнем моря 131 м.

В архиве по умолчанию представлена погода в Гарях за последнюю неделю. Архивные данные за месяц целиком и за предыдущие месяцы, начиная с января 2011 года, Вы можете получить, выбрав интересующий диапазон дат из раскрывающегося списка и нажав кнопку "Ввод!".


*Определитесь, кто Вы:
робот инопланетянин человек

Внимание! Время в таблицах - всемирное. Для получения местного времени необходимо прибавить поправку, которая равна 5 ч.

Смотрите также архив погоды в соседних городах и на ближайших метеорологических станциях:

Погода в Серове (Свердловская область, Россия) (103 км)
Погода в Верхотурье (Свердловская область, Россия) (108 км)
Погода в Карпинске (Свердловская область, Россия) (136 км)
Погода в Шаиме (Ханты-Мансийский АО, Россия) (145 км)
Погода в Североуральске (Свердловская область, Россия) (159 км)
Погода в Таборах (Свердловская область, Россия) (160 км)
Погода в Туринске (Свердловская область, Россия) (172 км)
Погода в Ивделе (Свердловская область, Россия) (174 км)
Погода в Кытлыме (Свердловская область, Россия) (176 км)
Погода в Алапаевске (Свердловская область, Россия) (177 км)

Пояснения к столбцам:

Ветер - указаны скорость ветра в м/с - средняя за 10 мин, порывы в срок и между сроками (в фигурных скобках) и направление, откуда дует ветер: С - северный, СВ - северо-восточный, В - восточный, ЮВ - юго-восточный, Ю - южный, ЮЗ - юго-западный, З - западный, СЗ - северо-западный.
Видимость - горизонтальная дальность видимости в метрах или километрах. При видимости от 1 до 10 км при отсутствии осадков обычно наблюдается дымка, при ухудшении видимости до 1 км и менее - туман. В сухую погоду видимость может ухудшаться дымом, пылью или мглою.
Явления - указаны атмосферные явления, наблюдавшиеся в срок или в последний час перед сроком; фигурными скобками обозначены явления, наблюдавшиеся между сроками (за 1-3 часа до срока); квадратными скобками обозначены град или гололедные отложения с указанием их диаметра в мм.
Облачность - указаны через наклонную черту общая и нижняя облачность в баллах и высота нижней границы облаков в метрах; квадратными скобками обозначены формы облаков: Ci - перистые, Cs - перисто-слоистые, Cc - перисто-кучевые, Ac - высококучевые, As - высокослоистые, Sc - слоисто-кучевые, Ns - слоисто-дождевые, Cu - кучевые, Cb - кучево-дождевые. Подробнее классификацию облаков см. в Атласе облаков (PDF).
T - Температура воздуха - температура, измеренная на высоте 2 м над землей.
Td - Температура точки росы - температура, при понижении до которой содержащийся в воздухе водяной пар достигнет насыщения.
f - Относительная влажность воздуха - влажноcть воздуха, измеренная на высоте 2 м над землей.
Te - Эффективная температура - температура, которую ощущает одетый по сезону человек в тени. Характеристика душности погоды. При расчете учитывается влияние влажности воздуха и скорости ветра на теплоощущения человека.
Tes - Эффективная температура на солнце - температура, которую ощущает человек, с поправкой на солнечный нагрев. Характеристика знойности погоды. Зависит от высоты солнца над горизонтом, облачности и скорости ветра. Ночью, в пасмурную погоду, а также при ветре 12 м/с и более поправка равна нулю.
P - Атмосферное давление - приведенное к уровню моря атмосферное давление.
Po - Атмосферное давление - измеренное на уровне метеостанции атмосферное давление.
Tmin - Минимальная температура - минимум температуры воздуха на высоте 2 м над землей.
Tmax - Максимальная температура - максимум температуры воздуха на высоте 2 м над землей.
R - Количество осадков - Количество выпавших осадков за период времени, мм. При наведении курсора мыши на число - период времени, за который выпало указанное количество осадков.
R24 - Количество осадков - Количество выпавших осадков за 24 часа, мм.
S - Снежный покров - Высота снежного покрова, см. При наведении курсора мыши на число - состояние снежного покрова и степень покрытия местности в баллах.